Voltar ao catálogo

CHUANG XIN 19

CX-19

AtivoCiênciaPO
NORAD 58505·PAYLOAD·🇨🇳 China

Lançado Dec 5, 2023 de South China Sea Launch Area

Loading…

Próximas Passagens (próximas 24 horas)

TLE

AtualizadoSource: Space-Track

Época: Sep 14, 2026, 23:02 UTC

1 58505U 23190A   26257.95990418  .00000041  00000-0  48339-4 0  9991
2 58505  86.5009 301.5242 0001832 109.2344 250.8997 13.39558179136716

Acompanhe CHUANG XIN 19 em tempo real com AllMySat

Download on the App Store